Showing default

LEGION 2, 59626

Orbit data source: Space-Track

LEGION 2, 59626 is a payload satellite owned by Maxar Intel (US) in SSO that was launched on Thu, 02 May 2024 UTC via an FALCON 9 launch vehicle from the Air Force Western Test Range (AFWTR). Payload-class satellites include a variety of spacecraft equipped with specific instruments for various scientific and technological missions. These include communications satellites like Starlink; space stations such as the ISS; scientific satellites like the Hubble; Earth observation satellites from companies like Planet Labs, Umbra, and HawkEye 360; GPS; miniature CubeSats for education and research; and military/defense satellites.

Loading next visibility...
Identifier
59626, 2024-081B
Orbit
SSO
Country
Flag of USUS
Related business
Manufacturer
Maxar Space Inf
Mission
Operational Commercial Imaging
Bus & Motor
LEGION, Unknown motor
Mass
~700 kg wet, 630 kg dry
Launch date (UTC)
2024-05-02 (2 years ago)
Launch vehicle
FALCON 9
Launch site
Air Force Western Test Range (AFWTR)
Object type
Payload
Rocket body
Debris
Shape & HBR
Box + 1 Pan, 1.5 m
Radar Cross Section
9.079 m², Large (>1 m²)

Expand to show TLE details & history
Last TLE update: 4 hours ago

TLE from 4 hours ago
0 LEGION 2
1 59626U 24081B   25311.79744066  .00008356  00000-0  42158-3 0  9993
2 59626  97.5247  26.8047 0003416  98.2269 261.9352 15.17373655 83980
Epoch: 2025-11-07T19:08Z
TLE epoch observation values (Epoch: 2025-11-07T19:08:18.873Z)
Latitude
0.00002°
Longitude
52.48981°
Altitude
517.196 km
Speed
7.605 km/s
True Right ascension
01h 47m 13s
True Declination
0° 00' 00"
Sunlit
Object was in full shadow at epoch
Visualization orbit readout
Latitude
Unknown
Longitude
Unknown
Altitude
Unknown
Speed
Unknown
Apparent Right ascension
Unknown
Apparent Declination
Unknown
Sunlit
N/A
Visualization observer readout
Local Sidereal Time
19:24:30
Azimuth
Unknown
Elevation
Unknown
Doppler factor
Unknown
Orbital elements
Apogee altitude
513.109 km
Perigee altitude
508.403 km
Semi-major axis
6,888.893 km
Eccentricity
0.00034
Inclination
97.5247°
RAAN
26.8047°
Arg. of periapsis
98.2269°
True anomaly
261.89644°
Mean anomaly
261.9352°
Eccentric anomaly
261.91582°
Mean motion
3.79594 °/min
Orbital period
94.84 mins
BSTAR
0.00042158
Loading maneuver chart data...
Computing Atmospheric mass density...
Loading historical data...
Loading historical data...
Loading historical data...
Loading historical data...
Loading historical data...
Loading historical data...
Loading historical data...
Other satellites on launch #81 in the year 2024 (2024-05-02 UTC)

Documentation

Showing up to 5 results
|